Location: Newark
(41.6500°N, 71.4833°W)
Time: 14:36:40
(UTC+00:00)

deb Explorer IX - Pass Details

Date: 24 January 2020
Orbit: 549 x 1099 km, 38.8° (Epoch: 28 February)

Event Time Altitude Azimuth Distance (km) Brightness Sun altitude
Rises 02:56:17 0° 234° (SW) 3,775 - -55.9°
Reaches altitude 10° 02:59:01 10° 229° (SW) 2,873 - -56.4°
Maximum altitude 03:05:46 47° 158° (SSE) 1,414 - -57.4°
Drops below altitude 10° 03:12:40 10° 87° (E) 2,930 - -58.5°
Sets 03:15:29 0° 82° (E) 3,856 - -58.9°
